Regional Weather Roundup
Issued by NWS Burlington, VT

Home | Current Version | Previous Version | Text Only | Print | Product List | Glossary On
Versions: 1 2 3 4 5 6 7 8 9 10 11 12 13 14 15 16 17 18 19 20 21 22 23 24 25 26 27 28 29 30 31 32 33 34 35 36 37 38 39 40 41 42 43 44 45 46 47 48 49 50
690
ASUS41 KBTV 211110
RWRBTV
VERMONT REGIONAL WEATHER ROUNDUP
NATIONAL WEATHER SERVICE BURLINGTON VT
600 AM EST TUE FEB 21 2017

NOTE: "FAIR" INDICATES FEW OR NO CLOUDS BELOW 12,000 FEET WITH NO
SIGNIFICANT WEATHER AND/OR OBSTRUCTIONS TO VISIBILITY.

* THESE REPORTS ARE NOT UNDER NWS QUALITY CONTROL AND/OR DO NOT
  REPORT WEATHER SUCH AS PRECIPITATION AND FOG.

VTZ001>019-211200-
_____VERMONT_____


CITY           SKY/WX    TMP DP  RH WIND       PRES   REMARKS
BURLINGTON     CLOUDY    19  14  81 CALM      30.33F
MONTPELIER     CLOUDY    10   9  95 S3        30.36F
MORRISVILLE    CLOUDY     7   3  84 CALM      30.35F
ST. JOHNSBURY*   N/A     10   7  87 MISG      30.36S
LYNDONVILLE*   FAIR       8   6  90 CALM      30.34F
MIDDLEBURY*    FAIR      17   8  66 CALM      30.32F
RUTLAND*       CLOUDY    18  13  80 S7        30.33F WCI   9
SPRINGFIELD    CLOUDY    14  10  84 CALM      30.38S
HIGHGATE*      FAIR      15  12  85 E5        30.34F WCI   8
NEWPORT*       FAIR      10   7  88 CALM      30.34F
BENNINGTON     CLOUDY    15   9  76 CALM      30.33F
SUTTON*          N/A     12 N/A N/A MISG        N/A

_____LAKE CHAMPLAIN_____


CITY           SKY/WX    TMP DP  RH WIND       PRES   REMARKS
BURTON ISLAND*   N/A     25  18  74 S5          N/A  WCI  19
COLCHESTER RF*   N/A     27  23  86 SE12        N/A  WCI  16
DIAMOND ISL*     N/A     23  19  86 S6          N/A  WCI  16

$$

NYZ007-026>031-035-052-083-087-211200-
_____NORTHERN NEW YORK_____


CITY           SKY/WX    TMP DP  RH WIND       PRES   REMARKS
PLATTSBURGH    CLOUDY    16  12  84 CALM      30.33F
SARANAC LAKE   CLOUDY     6   3  87 CALM      30.22F
MASSENA        CLOUDY    15  11  83 E3        30.31F
OGDENSBURG*    FAIR      23  20  87 SE3       30.25F
POTSDAM*       CLEAR     25  14  63 SE6       30.26F WCI  18
WATERTOWN      CLOUDY    21  17  84 CALM      30.23F
FT DRUM        CLOUDY    26  14  60 SE12      30.21F WCI  16
ALBANY         CLOUDY    19  13  77 CALM      30.39R
GLENS FALLS    CLOUDY    14   9  80 CALM      30.37S

$$
NHZ002-005-011-211200-
_____NEW HAMPSHIRE_____


CITY           SKY/WX    TMP DP  RH WIND       PRES   REMARKS
LEBANON        CLOUDY    13  10  88 CALM      30.37S
KEENE          CLOUDY    12  10  92 CALM      30.39R
MT WASHINGTON  PTCLDY    28 -17  13 NE15        N/A  WCI  17
PLYMOUTH       FAIR      13  10  91 CALM      30.37S
WHITEFIELD     CLOUDY     5   0  79 CALM      30.34F

$$

_____REGIONAL QUEBEC LOCATIONS_____


CITY           SKY/WX    TMP DP  RH WIND       PRES   REMARKS
MONTREAL       PTCLDY    23  14  68 E6        30.33F WCI  16
QUEBEC CITY    PTCLDY    12   3  67 NE5       30.37F WCI   4
SHERBROOKE     CLEAR      7   3  85 E6        30.33F WCI  -3

_____REGIONAL ONTARIO LOCATIONS_____


CITY           SKY/WX    TMP DP  RH WIND       PRES   REMARKS
OTTAWA         MOCLDY    18   9  68 E10       30.25F WCI   6

______KEY______
VSB  - VISIBILITY IN MILES
WCI  - WIND CHILL INDEX
HX   - HEAT INDEX
$$
NNNN




USA.gov is the U.S. government's official web portal to all federal, state and local government web resources and services.